216P/LINEAR (2016)

Japanese version
Home page
Updated on May 29, 2016

---------------------------------------------------------------------

* Profile

* Orbital Elements

Epoch 2016 July 31.0 TT = JDT 2457600.5
T 2016 May 31.13633 TT                                  MPCW
q   2.1497336            (2000.0)            P               Q
n   0.12908953     Peri.  151.58556     -0.87848683     -0.47776644
a   3.8774128      Node   359.87323     +0.40316449     -0.74092230
e   0.4455752      Incl.    9.04819     +0.25635772     -0.47198875
P   7.64
From 138 observations 2001 Feb. 1-2016 Apr. 27, mean residual 0".6.

* Magnitudes Graph

        m1 = 2.0 + 5 log d + 45 log r

---------------------------------------------------------------------

The orbital elements are published on M.P.E.C. 2016-K18.
The magnitudes graphs are made with Comet for Windows.

---------------------------------------------------------------------

Copyright(C) Seiichi Yoshida (comet@aerith.net). All rights reserved.